STARLINK-35367, 65883

Orbit data source: Space-Track

STARLINK-35367, 65883 is a payload satellite owned by SpaceX/Seattle (US) in LEO that was launched on Tue, 07 Oct 2025 UTC via an FALCON 9 launch vehicle from the Air Force Eastern Test Range (AFETR). Payload-class satellites include a variety of spacecraft equipped with specific instruments for various scientific and technological missions. These include communications satellites like Starlink; space stations such as the ISS; scientific satellites like the Hubble; Earth observation satellites from companies like Planet Labs, Umbra, and HawkEye 360; GPS; miniature CubeSats for education and research; and military/defense satellites.

Loading next visibility...
Identifier
65883, 2025-224B
Orbit
LEO
Country
Flag of USUS
Related business
Manufacturer
SpaceX/Seattle
Mission
Operational Commercial Communications
Bus & Motor
STARLINK V2MO, Unknown motor
Mass
575 kg wet, ~530 kg dry
Launch date (UTC)
2025-10-07 (5 months ago)
Launch vehicle
FALCON 9
Launch site
Air Force Eastern Test Range (AFETR)
Object type
Payload
Rocket body
Debris
Shape & HBR
Box + 2 Pan, 17.7 m
Radar Cross Section
36.964 m²

Expand to show TLE details & history
Last TLE update: 11 hours ago

TLE from 11 hours ago
0 STARLINK-35367
1 65883U 25224B   26062.14268516  .00043063  00000-0  14576-2 0  9995
2 65883  53.1604  41.6412 0001050  69.4937 290.6176 15.30202133 23829
Epoch: 2026-03-03T03:25Z
TLE epoch observation values (Epoch: 2026-03-03T03:25:27.997Z)
Latitude
-0.00007°
Longitude
-170.65149°
Altitude
475.855 km
Speed
7.629 km/s
True Right ascension
02h 46m 33s
True Declination
0° 00' 00"
Sunlit
Object was in daylight at epoch
Visualization orbit readout
Latitude
Unknown
Longitude
Unknown
Altitude
Unknown
Speed
Unknown
Apparent Right ascension
Unknown
Apparent Declination
Unknown
Sunlit
N/A
Visualization observer readout
Local Sidereal Time
17:47:10
Azimuth
Unknown
Elevation
Unknown
Doppler factor
Unknown
Orbital elements
Apogee altitude
476.185 km
Perigee altitude
474.745 km
Semi-major axis
6,853.602 km
Eccentricity
0.00011
Inclination
53.1604°
RAAN
41.6412°
Arg. of periapsis
69.4937°
True anomaly
290.60634°
Mean anomaly
290.6176°
Eccentric anomaly
290.61197°
Mean motion
3.82529 °/min
Orbital period
94.11 mins
BSTAR
0.0014576
Loading maneuver chart data...
Computing Atmospheric mass density...
Loading historical data...
Loading historical data...
Loading historical data...
Loading historical data...
Loading historical data...
Loading historical data...
Loading historical data...

Documentation

Showing up to 5 results
|